TimeCST,TemperatureF,Dew PointF,Humidity,Sea Level PressureIn,VisibilityMPH,Wind Direction,Wind SpeedMPH,Gust SpeedMPH,PrecipitationIn,Events,Conditions,WindDirDegrees,DateUTC
12:15 AM,55.2,24.4,30,30.00,10.0,South,10.4,-,N/A,,Clear,190,2012-12-07 06:15:00
12:35 AM,53.8,24.4,32,30.00,10.0,SSW,9.2,-,N/A,,Clear,210,2012-12-07 06:35:00
12:55 AM,53.6,24.3,32,29.99,10.0,SW,10.4,-,N/A,,Clear,220,2012-12-07 06:55:00
1:15 AM,55.2,24.3,30,29.99,10.0,SW,12.7,-,N/A,,Clear,220,2012-12-07 07:15:00
1:35 AM,54.9,24.4,31,29.99,10.0,SSW,11.5,-,N/A,,Clear,210,2012-12-07 07:35:00
1:55 AM,54.9,24.4,31,29.98,10.0,SSW,9.2,-,N/A,,Clear,210,2012-12-07 07:55:00
2:15 AM,54.5,24.4,31,29.98,10.0,South,6.9,-,N/A,,Clear,170,2012-12-07 08:15:00
2:35 AM,55.2,24.6,31,29.98,10.0,South,4.6,-,N/A,,Clear,190,2012-12-07 08:35:00
2:55 AM,54.3,24.6,32,29.98,10.0,SSW,6.9,-,N/A,,Clear,200,2012-12-07 08:55:00
3:15 AM,51.6,24.6,35,29.97,10.0,SSW,8.1,-,N/A,,Clear,200,2012-12-07 09:15:00
3:35 AM,51.1,24.6,36,29.97,10.0,SSW,5.8,-,N/A,,Clear,200,2012-12-07 09:35:00
3:55 AM,52.3,24.6,34,29.97,10.0,South,6.9,-,N/A,,Clear,190,2012-12-07 09:55:00
4:15 AM,53.1,24.8,33,29.96,10.0,South,9.2,-,N/A,,Clear,190,2012-12-07 10:15:00
4:35 AM,52.5,24.8,34,29.96,10.0,South,9.2,-,N/A,,Clear,190,2012-12-07 10:35:00
4:55 AM,52.2,25.0,35,29.96,10.0,SW,9.2,-,N/A,,Clear,220,2012-12-07 10:55:00
5:15 AM,51.6,25.3,36,29.97,10.0,Calm,Calm,-,N/A,,Clear,0,2012-12-07 11:15:00
5:35 AM,51.4,25.3,36,29.96,10.0,SSW,6.9,-,N/A,,Clear,200,2012-12-07 11:35:00
5:55 AM,51.8,25.5,36,29.97,10.0,SW,10.4,-,N/A,,Clear,220,2012-12-07 11:55:00
6:15 AM,52.0,25.3,36,29.98,10.0,SSW,10.4,-,N/A,,Clear,210,2012-12-07 12:15:00
6:35 AM,50.0,25.5,39,29.99,10.0,SSW,9.2,-,N/A,,Clear,210,2012-12-07 12:35:00
6:55 AM,50.0,25.3,38,30.00,10.0,SSW,8.1,-,N/A,,Clear,210,2012-12-07 12:55:00
7:15 AM,47.8,25.2,41,30.00,10.0,SSW,8.1,-,N/A,,Clear,210,2012-12-07 13:15:00
7:35 AM,45.3,25.0,45,30.01,10.0,SW,5.8,-,N/A,,Clear,220,2012-12-07 13:35:00
7:55 AM,44.8,25.2,46,30.02,7.0,SE,4.6,-,N/A,,Clear,130,2012-12-07 13:55:00
8:15 AM,48.9,25.3,40,30.02,10.0,South,6.9,-,N/A,,Clear,170,2012-12-07 14:15:00
8:35 AM,50.5,25.7,38,30.02,10.0,South,8.1,-,N/A,,Clear,190,2012-12-07 14:35:00
8:55 AM,50.9,26.1,38,30.03,10.0,South,8.1,-,N/A,,Clear,190,2012-12-07 14:55:00
9:15 AM,55.4,27.0,34,30.03,10.0,South,3.5,-,N/A,,Clear,170,2012-12-07 15:15:00
9:35 AM,60.8,27.3,28,30.03,10.0,South,3.5,-,N/A,,Clear,180,2012-12-07 15:35:00
9:55 AM,64.9,25.9,23,30.04,10.0,ESE,3.5,-,N/A,,Clear,110,2012-12-07 15:55:00
10:15 AM,66.6,26.2,22,30.04,10.0,Calm,Calm,-,N/A,,Clear,0,2012-12-07 16:15:00
10:35 AM,68.0,24.8,20,30.04,10.0,NW,9.2,-,N/A,,Clear,310,2012-12-07 16:35:00
10:55 AM,69.6,24.4,18,30.03,10.0,WNW,9.2,-,N/A,,Clear,300,2012-12-07 16:55:00
11:15 AM,70.9,24.8,18,30.03,10.0,SSW,4.6,-,N/A,,Clear,210,2012-12-07 17:15:00
11:35 AM,71.2,25.2,18,30.02,10.0,WSW,4.6,-,N/A,,Clear,240,2012-12-07 17:35:00
11:55 AM,72.1,25.5,18,30.02,10.0,West,12.7,20.7,N/A,,Clear,280,2012-12-07 17:55:00
12:15 PM,72.3,25.0,17,30.01,10.0,West,18.4,21.9,N/A,,Clear,260,2012-12-07 18:15:00
12:35 PM,73.0,24.3,16,30.00,10.0,WSW,10.4,20.7,N/A,,Clear,250,2012-12-07 18:35:00
1:15 PM,73.6,22.1,15,29.98,10.0,WSW,16.1,23.0,N/A,,Clear,240,2012-12-07 19:15:00
1:35 PM,73.4,21.0,14,29.97,10.0,WSW,13.8,19.6,N/A,,Clear,240,2012-12-07 19:35:00
1:55 PM,73.9,20.1,13,29.96,10.0,SW,17.3,23.0,N/A,,Clear,230,2012-12-07 19:55:00
2:15 PM,73.2,20.1,14,29.95,10.0,West,12.7,20.7,N/A,,Clear,260,2012-12-07 20:15:00
2:35 PM,73.0,19.8,13,29.95,10.0,WSW,18.4,24.2,N/A,,Clear,250,2012-12-07 20:35:00
2:55 PM,73.6,18.3,12,29.95,10.0,WSW,15.0,20.7,N/A,,Clear,240,2012-12-07 20:55:00
3:15 PM,73.2,19.9,13,29.95,10.0,West,15.0,20.7,N/A,,Clear,270,2012-12-07 21:15:00
3:35 PM,72.5,20.8,14,29.95,10.0,West,16.1,-,N/A,,Clear,270,2012-12-07 21:35:00
3:55 PM,72.5,21.7,15,29.95,10.0,West,13.8,17.3,N/A,,Clear,260,2012-12-07 21:55:00
4:15 PM,72.1,22.1,15,29.95,10.0,WSW,10.4,-,N/A,,Clear,250,2012-12-07 22:15:00
4:35 PM,71.8,21.4,15,29.95,10.0,West,11.5,-,N/A,,Clear,260,2012-12-07 22:35:00
4:55 PM,70.7,21.4,16,29.96,10.0,West,11.5,-,N/A,,Clear,270,2012-12-07 22:55:00
5:15 PM,68.5,22.1,17,29.97,10.0,West,8.1,-,N/A,,Clear,280,2012-12-07 23:15:00
5:35 PM,66.6,22.1,18,29.97,10.0,West,9.2,-,N/A,,Clear,270,2012-12-07 23:35:00
5:55 PM,64.6,21.9,20,29.98,10.0,WSW,5.8,-,N/A,,Clear,250,2012-12-07 23:55:00
6:15 PM,59.4,21.6,23,29.98,10.0,SW,6.9,-,N/A,,Clear,230,2012-12-08 00:15:00
6:35 PM,56.1,21.4,26,29.98,10.0,WSW,8.1,-,N/A,,Clear,250,2012-12-08 00:35:00
6:55 PM,55.9,21.4,26,29.99,10.0,SW,10.4,-,N/A,,Clear,230,2012-12-08 00:55:00
7:15 PM,56.3,21.6,26,30.00,10.0,WSW,9.2,-,N/A,,Clear,240,2012-12-08 01:15:00
7:35 PM,52.5,21.4,30,30.00,10.0,SW,8.1,-,N/A,,Clear,220,2012-12-08 01:35:00
7:55 PM,50.0,21.2,32,30.00,10.0,SSW,8.1,-,N/A,,Clear,210,2012-12-08 01:55:00
8:15 PM,50.7,21.2,31,30.00,10.0,SSW,10.4,-,N/A,,Clear,200,2012-12-08 02:15:00
8:35 PM,49.5,21.2,33,30.02,10.0,ENE,8.1,-,N/A,,Clear,60,2012-12-08 02:35:00
8:55 PM,47.7,21.0,35,30.02,10.0,SSW,10.4,-,N/A,,Clear,200,2012-12-08 02:55:00
9:15 PM,48.6,21.0,34,30.02,10.0,SW,6.9,-,N/A,,Clear,230,2012-12-08 03:15:00
9:35 PM,45.7,20.3,37,30.02,10.0,SSW,8.1,-,N/A,,Clear,210,2012-12-08 03:35:00
9:55 PM,45.3,20.7,38,30.02,10.0,SSW,6.9,-,N/A,,Clear,200,2012-12-08 03:55:00
10:15 PM,46.0,20.8,37,30.02,10.0,SSW,9.2,-,N/A,,Clear,200,2012-12-08 04:15:00
10:35 PM,46.9,20.8,36,30.02,10.0,SSE,8.1,-,N/A,,Clear,160,2012-12-08 04:35:00
10:55 PM,47.3,20.8,35,30.02,10.0,South,9.2,-,N/A,,Clear,190,2012-12-08 04:55:00
11:15 PM,48.2,21.2,34,30.02,10.0,SSW,8.1,-,N/A,,Clear,200,2012-12-08 05:15:00
11:35 PM,47.1,21.0,36,30.03,10.0,Calm,Calm,-,N/A,,Clear,0,2012-12-08 05:35:00
11:55 PM,47.7,21.2,35,30.02,10.0,SSW,5.8,-,N/A,,Clear,200,2012-12-08 05:55:00